[[{"header":{"parameterUnit":"m.s-1","parameterCategory":1,"la1":30.2991,"la2":30.254,"lo1":-89.0895,"lo2":-89.0444,"dy":0.0017,"dx":0.0017,"nx":28,"ny":28,"refTime":"2024-05-20T09:00:00:Z","depth":0,"parameterNumber":2,"parameterNumberName":"U-component_of_WINDS"},"data":[0,0,0,0,0,0,0,0,0,0,0,0,0,0,0,0,0,0,0,0,0,0,0,0,0,0,0,0,0,0,0,0,0,0,0,0,0,0,0,0,0,0,0,0,0,0,0,0,0,0,0,0,0,0,0,0,0,0,-3.3952,-3.3952,0,-3.3951,-3.3951,-3.3951,-3.3888,-3.3886,-3.3885,-3.3883,-3.3882,-3.3884,-3.3885,0,0,0,0,0,0,0,0,0,0,0,0,0,-3.3904,-3.3905,-3.3952,-3.3952,-3.3952,-3.3951,-3.3951,-3.3951,-3.3888,-3.3886,-3.3884,-3.3882,-3.3882,-3.3884,-3.3886,0,0,0,0,0,0,0,0,0,0,0,0,0,-3.3916,-3.3905,-3.3952,-3.3921,-3.3918,-3.3951,-3.3951,-3.3951,-3.3888,-3.3886,-3.3884,-3.3881,-3.3881,-3.3884,-3.3886,-3.3949,0,0,-3.3893,-3.3894,0,0,0,0,0,0,0,0,-3.3915,-3.3918,-3.3926,-3.3923,-3.392,-3.3917,-3.3933,-3.395,-3.3889,-3.39,-3.3883,-3.388,-3.3896,-3.3897,-3.3902,-3.3949,-3.3949,-3.3893,-3.3894,-3.3895,-3.3896,0,0,0,0,0,0,0,-3.3915,-3.3918,-3.3952,-3.3926,-3.3922,-3.3908,-3.3907,-3.3936,-3.3912,-3.3899,-3.3894,-3.3895,-3.3894,-3.39,-3.3902,-3.3949,-3.3893,-3.3895,-3.3896,-3.3897,-3.4048,-3.4051,0,0,0,0,0,0,-3.3918,-3.3917,-3.3952,-3.3952,-3.3912,-3.3911,-3.3909,-3.392,-3.3911,-3.3907,-3.3897,-3.3892,-3.3897,-3.3899,-3.3901,-3.3974,-3.3895,-3.3897,-3.3899,-3.4046,-3.4049,-3.4052,0,0,0,0,0,0,-3.3917,-3.3921,-3.3952,-3.3933,-3.3936,-3.3914,-3.3927,-3.3922,-3.3927,-3.391,-3.3905,-3.3907,-3.3895,-3.3898,-3.3938,-3.3973,-3.3898,-3.39,-3.4042,-3.4047,-3.405,-3.412,0,0,0,0,0,0,-3.3916,-3.3922,-3.3944,-3.3934,-3.3937,-3.3987,-3.3929,-3.3923,-3.3931,-3.3925,-3.3918,-3.3915,-3.3894,-3.3935,-3.394,-3.3975,-3.3902,-3.4039,-3.4044,-3.4049,-3.4114,-3.4126,-3.4135,0,0,0,0,0,-3.3914,-3.3964,-3.3946,-3.395,-3.3965,-3.3989,-3.3991,-3.3965,-3.3935,-3.3958,-3.3947,-3.3915,-3.3969,-3.3939,-3.3945,-3.3981,-3.4037,-3.4043,-3.4049,-3.4109,-3.4123,-3.4135,0,0,0,0,0,0,-3.3979,-3.3962,-3.3941,-3.3989,-3.3991,-3.3979,-3.4007,-3.3981,-3.3992,-3.3985,-3.3954,-3.3953,-3.3997,-3.3994,-3.396,-3.4042,-3.3997,-3.4005,-3.4042,-3.4055,-3.4065,-3.4064,-3.3904,0,0,0,0,0,-3.3999,-3.4019,-3.4004,-3.4048,-3.405,-3.4029,-3.4038,-3.4019,-3.4019,-3.402,-3.4012,-3.4014,-3.4032,-3.4044,-3.4059,-3.4115,-3.4112,-3.4143,-3.4153,-3.4162,-3.4168,-3.4197,-3.421,-3.4071,-3.4071,-3.4071,0,0,-3.404,-3.4033,-3.4048,-3.4061,-3.406,-3.4082,-3.403,-3.4055,-3.4072,-3.4024,-3.406,-3.4055,-3.4056,-3.4104,-3.4124,-3.4102,-3.4206,-3.417,-3.4177,-3.4178,-3.4204,-3.4218,-3.4229,-3.4075,-3.4075,-3.4074,0,0,-3.4125,-3.4123,-3.4158,-3.4159,-3.4159,-3.4145,-3.4154,-3.4146,-3.414,-3.4176,-3.4141,-3.4161,-3.4192,-3.4194,-3.4199,-3.4289,-3.426,-3.4296,-3.435,-3.4379,-3.4389,-3.4399,-3.443,-3.4441,-3.4302,-3.4302,-3.4302,0,-3.4175,-3.4207,-3.418,-3.4208,-3.4215,-3.4174,-3.4211,-3.4213,-3.4218,-3.4224,-3.4199,-3.4238,-3.4236,-3.4283,-3.4305,-3.4312,-3.4321,-3.4294,-3.439,-3.4399,-3.4408,-3.4437,-3.4448,-3.4306,-3.4306,-3.4305,-3.4305,0,-3.4269,-3.4292,-3.4321,-3.4326,-3.4337,-3.437,-3.4349,-3.4363,-3.4344,-3.4333,-3.4371,-3.4368,-3.4382,-3.4392,-3.4374,-3.4438,-3.4424,-3.4396,-3.4349,-3.4425,-3.4452,-3.4463,-3.4312,-3.4311,-3.4309,-3.4308,0,0,-3.439,-3.4383,-3.4394,-3.4396,-3.4394,-3.4412,-3.4444,-3.4457,-3.4469,-3.4476,-3.4501,-3.453,-3.4504,-3.451,-3.4492,-3.4518,-3.4588,-3.4486,-3.4485,-3.4503,-3.4657,-3.4677,-3.469,-3.457,-3.4572,-3.4574,-3.4657,0,-3.4471,-3.4523,-3.4501,-3.4556,-3.4576,-3.454,-3.4567,-3.457,-3.4562,-3.4579,-3.4571,-3.459,-3.4555,-3.4559,-3.4583,-3.4574,-3.4618,-3.4568,-3.4593,-3.4594,-3.459,-3.4704,-3.4724,-3.4802,-3.4667,-3.4669,-3.467,0,-3.4571,-3.4581,-3.4637,-3.4633,-3.4641,-3.4666,-3.4677,-3.4694,-3.4697,-3.469,-3.4698,-3.4675,-3.4706,-3.4664,-3.4707,-3.4674,-3.4684,-3.4681,-3.4684,-3.4682,-3.4634,-3.4704,-3.4827,-3.4837,-3.4687,-3.4685,-3.4684,0,-3.4652,-3.468,-3.4717,-3.4721,-3.4717,-3.4735,-3.4735,-3.4735,-3.4745,-3.4756,-3.4762,-3.4777,-3.4785,-3.4797,-3.4779,-3.475,-3.4825,-3.4781,-3.4819,-3.4819,-3.4833,-3.4832,-3.4957,-3.4845,-3.4844,-3.4844,-3.4844,0,-3.4743,-3.4778,-3.4753,-3.4776,-3.4815,-3.4792,-3.4831,-3.4827,-3.4828,-3.485,-3.4821,-3.4842,-3.4818,-3.4837,-3.4824,-3.4862,-3.4866,-3.486,-3.4856,-3.4861,-3.4862,-3.4865,-3.4858,-3.4847,-3.4846,-3.4846,-3.4845,0,-3.4838,-3.4823,-3.4861,-3.4855,-3.4854,-3.4883,-3.4878,-3.4899,-3.4891,-3.4919,-3.4924,-3.491,-3.4931,-3.4916,-3.4937,-3.4929,-3.4977,-3.4967,-3.4976,-3.4972,-3.501,-3.5006,-3.5138,-3.5154,-3.5034,-3.5035,-3.5036,0,-3.4895,-3.4921,-3.4919,-3.4931,-3.4932,-3.4952,-3.4963,-3.4942,-3.4954,-3.4961,-3.4981,-3.5,-3.5014,-3.505,-3.5042,-3.5059,-3.5047,-3.5093,-3.5049,-3.5054,-3.5045,-3.5043,-3.5045,-3.51,-3.5102,-3.5103,-3.5104,0,-3.4998,-3.499,-3.5005,-3.5019,-3.5032,-3.5042,-3.5049,-3.5062,-3.5041,-3.5056,-3.5077,-3.5088,-3.5111,-3.513,-3.5144,-3.5145,-3.5121,-3.5119,-3.5128,-3.5132,-3.5135,-3.5132,-3.4997,-3.5115,-3.5114,-3.5113,-3.5112,-3.5112,-3.5074,-3.5096,-3.5097,-3.5116,-3.512,-3.5128,-3.5148,-3.5142,-3.5159,-3.5175,-3.5163,-3.5189,-3.5193,-3.521,-3.5213,-3.5234,-3.5215,-3.5229,-3.5232,-3.5235,-3.5239,-3.5135,-3.5237,-3.5236,-3.5236,-3.5236,-3.5235,0,-3.5174,-3.5173,-3.5191,-3.5203,-3.5218,-3.5196,-3.5204,-3.5218,-3.5241,-3.5246,-3.5261,-3.5286,-3.5306,-3.5301,-3.5318,-3.5335,-3.5325,-3.5341,-3.5337,-3.5338,-3.5256,-3.5245,-3.5349,-3.5349,-3.5348,-3.5348,-3.5348,-3.5348,-3.5227,-3.5262,-3.5255,-3.5293,-3.5292,-3.5317,-3.5323,-3.5331,-3.5336,-3.5365,-3.5381,-3.5378,-3.5379,-3.5397,-3.5414,-3.5412,-3.5419,-3.5438,-3.5432,-3.5355,-3.5344,-3.5333,-3.5322,-3.5441,-3.5441,-3.5512,-3.5513,-3.5513]},{"header":{"parameterUnit":"m.s-1","parameterCategory":1,"la1":30.2991,"la2":30.254,"lo1":-89.0895,"lo2":-89.0444,"dy":0.0017,"dx":0.0017,"nx":28,"ny":28,"refTime":"2024-05-20T09:00:00:Z","depth":0,"parameterNumber":3,"parameterNumberName":"V-component_of_WINDS"},"data":[0,0,0,0,0,0,0,0,0,0,0,0,0,0,0,0,0,0,0,0,0,0,0,0,0,0,0,0,0,0,0,0,0,0,0,0,0,0,0,0,0,0,0,0,0,0,0,0,0,0,0,0,0,0,0,0,0,0,3.2936,3.2937,0,3.2976,3.2977,3.2977,3.3054,3.3055,3.3057,3.3058,3.3093,3.3093,3.3093,0,0,0,0,0,0,0,0,0,0,0,0,0,3.2921,3.2921,3.2936,3.2937,3.2937,3.2976,3.2977,3.2977,3.3053,3.3055,3.3057,3.3059,3.3094,3.3093,3.3092,0,0,0,0,0,0,0,0,0,0,0,0,0,3.2941,3.2921,3.2936,3.298,3.2984,3.2976,3.2977,3.2978,3.3053,3.3055,3.3057,3.3059,3.3094,3.3093,3.3092,3.3043,0,0,3.309,3.309,0,0,0,0,0,0,0,0,3.2939,3.2941,3.2973,3.2977,3.2982,3.3012,3.2985,3.2999,3.3052,3.3027,3.3058,3.3061,3.3064,3.3066,3.3069,3.3045,3.3046,3.309,3.309,3.309,3.3089,0,0,0,0,0,0,0,3.2938,3.294,3.2952,3.2973,3.2979,3.2996,3.3001,3.2988,3.3032,3.3029,3.3035,3.3039,3.3067,3.3069,3.307,3.3047,3.309,3.309,3.3089,3.3089,3.2986,3.2983,0,0,0,0,0,0,3.2931,3.2938,3.2951,3.2953,3.2966,3.2995,3.3001,3.3,3.3033,3.304,3.3037,3.3042,3.3069,3.3071,3.3071,3.3017,3.309,3.3089,3.3089,3.2988,3.2985,3.2983,0,0,0,0,0,0,3.293,3.2931,3.2949,3.2947,3.2951,3.2993,3.2991,3.3,3.3002,3.3039,3.3046,3.3031,3.3071,3.3072,3.305,3.3019,3.3089,3.3088,3.2991,3.2987,3.2984,3.2906,0,0,0,0,0,0,3.2929,3.2931,3.2913,3.2946,3.2951,3.2928,3.299,3.2999,3.3001,3.3009,3.3035,3.3042,3.3073,3.3051,3.305,3.3019,3.3088,3.2994,3.2989,3.2985,3.2912,3.2901,3.2891,0,0,0,0,0,3.2929,3.2888,3.2912,3.2913,3.293,3.2926,3.2929,3.2967,3.2998,3.2981,3.3004,3.3041,3.3023,3.3048,3.3047,3.3016,3.2996,3.299,3.2985,3.2917,3.2903,3.2891,0,0,0,0,0,0,3.2848,3.2894,3.292,3.289,3.2904,3.2939,3.2918,3.2951,3.2955,3.2962,3.3008,3.3013,3.2985,3.2998,3.3026,3.2971,3.3015,3.3009,3.2963,3.295,3.294,3.2937,3.3087,0,0,0,0,0,3.2828,3.2822,3.2861,3.2831,3.2837,3.2876,3.2876,3.2905,3.292,3.2926,3.2948,3.296,3.2958,3.2955,3.2954,3.2914,3.2921,3.2893,3.2882,3.2873,3.2868,3.2848,3.2836,3.2965,3.2965,3.2966,0,0,3.2784,3.2808,3.2801,3.2815,3.283,3.2822,3.2881,3.287,3.2864,3.2924,3.2905,3.2921,3.2938,3.2907,3.2894,3.2918,3.2834,3.2867,3.2859,3.2859,3.2842,3.2829,3.2818,3.2962,3.2962,3.2963,0,0,3.27,3.2718,3.2695,3.2709,3.2731,3.2757,3.2751,3.2782,3.2796,3.2778,3.2823,3.2816,3.281,3.2821,3.2825,3.2747,3.278,3.2745,3.269,3.2671,3.2661,3.2652,3.2624,3.2613,3.274,3.2739,3.2739,0,3.2643,3.2635,3.2678,3.2666,3.267,3.2726,3.2702,3.2713,3.2732,3.2733,3.276,3.2755,3.2769,3.2742,3.2723,3.2725,3.2719,3.2742,3.2659,3.2651,3.2643,3.2617,3.2606,3.2735,3.2735,3.2736,3.2736,0,3.2563,3.2556,3.2535,3.2555,3.2557,3.2538,3.2578,3.2575,3.2603,3.2627,3.2608,3.2628,3.2633,3.2629,3.2655,3.2605,3.2619,3.2651,3.2696,3.2626,3.2602,3.2592,3.2729,3.273,3.2732,3.2733,0,0,3.243,3.2475,3.2467,3.2477,3.2505,3.25,3.2484,3.2491,3.2487,3.2498,3.2486,3.248,3.2511,3.2516,3.2544,3.2527,3.2463,3.2561,3.2562,3.2542,3.2409,3.2385,3.2373,3.2486,3.2484,3.2483,3.2408,0,3.2353,3.233,3.2369,3.2336,3.233,3.2383,3.2369,3.2384,3.2406,3.2403,3.2426,3.2422,3.2462,3.2466,3.2451,3.2474,3.2437,3.248,3.2473,3.2473,3.2468,3.2361,3.2335,3.2263,3.2399,3.2398,3.2396,0,3.226,3.2269,3.2236,3.2268,3.2267,3.2253,3.2263,3.226,3.2278,3.2295,3.2301,3.2335,3.232,3.2364,3.2344,3.2372,3.2372,3.2383,3.2381,3.2382,3.243,3.2359,3.2241,3.2231,3.2382,3.2383,3.2384,0,3.2167,3.217,3.2152,3.2159,3.2194,3.2184,3.2198,3.2218,3.222,3.2228,3.223,3.2235,3.2237,3.224,3.2274,3.2303,3.225,3.2296,3.2262,3.2261,3.2249,3.2249,3.213,3.2248,3.2248,3.2248,3.2248,0,3.2077,3.2054,3.2111,3.2099,3.2075,3.212,3.2095,3.2114,3.2132,3.2124,3.2169,3.2161,3.2207,3.2202,3.2229,3.2208,3.2209,3.2221,3.2228,3.2217,3.2216,3.2217,3.2223,3.2245,3.2246,3.2246,3.2247,0,3.1969,3.2006,3.1989,3.2025,3.2033,3.2014,3.2044,3.2034,3.2059,3.2048,3.2048,3.2086,3.2084,3.2119,3.2122,3.214,3.2107,3.2123,3.2102,3.2107,3.2071,3.2074,3.1949,3.1935,3.2061,3.206,3.2059,0,3.1909,3.1894,3.1929,3.1928,3.194,3.1937,3.194,3.1983,3.1984,3.2004,3.1991,3.1993,3.1996,3.199,3.2017,3.2019,3.2036,3.1992,3.2036,3.2026,3.2036,3.2036,3.2035,3.1982,3.1981,3.198,3.1978,0,3.18,3.1819,3.1823,3.1832,3.1834,3.1843,3.1855,3.1851,3.1898,3.1896,3.1895,3.1898,3.1903,3.1904,3.1912,3.1925,3.1959,3.1964,3.1957,3.1945,3.1934,3.194,3.2076,3.1967,3.1968,3.1969,3.197,3.197,3.1715,3.1704,3.1727,3.1729,3.1743,3.1753,3.1746,3.1771,3.1771,3.178,3.1805,3.1799,3.1818,3.1833,3.1843,3.1838,3.186,3.1848,3.1846,3.1842,3.1836,3.1934,3.184,3.184,3.184,3.1841,3.1841,0,3.1609,3.1626,3.1628,3.1644,3.1645,3.1679,3.1694,3.1692,3.1688,3.1703,3.1706,3.1705,3.1706,3.1733,3.1738,3.1729,3.1745,3.1728,3.173,3.1732,3.1816,3.1823,3.1716,3.1716,3.1716,3.1716,3.1716,3.1716,3.1553,3.1537,3.1559,3.1549,3.1567,3.1564,3.1569,3.1578,3.1591,3.1588,3.159,3.1609,3.1629,3.1635,3.1637,3.1645,3.1644,3.1623,3.1636,3.1714,3.1726,3.1738,3.1744,3.1622,3.1622,3.1552,3.1552,3.1551]}]]